Regional Weather Roundup
Issued by NWS

Home | Current Version | Previous Version | Text Only | Print | Product List | Glossary On
Versions: 1 2 3 4 5 6 7 8 9 10 11 12 13 14 15 16 17 18 19 20 21 22 23 24 25 26 27
000
ASUS45 KREV 211010
RWRNV
NEVADA REGIONAL WEATHER ROUNDUP
NATIONAL WEATHER SERVICE RENO NV
300 AM PDT FRI JUL 21 2017

NOTE: "FAIR" INDICATES FEW OR NO CLOUDS BELOW 12,000 FEET WITH NO
SIGNIFICANT WEATHER AND/OR OBSTRUCTIONS TO VISIBILITY.

NVZ001-003-004-211100-
WESTERN NEVADA

CITY           SKY/WX    TMP DP  RH WIND       PRES   REMARKS
RENO           CLEAR     64  33  31 SW3       30.15S
CARSON CITY    MOCLDY    55  32  41 CALM      30.16F
MINDEN         FAIR      45  36  70 MISG      30.17S
FALLON         CLEAR     63  29  27 SW6       30.07F
LOVELOCK       CLEAR     65  29  25 N3        30.06S
HAWTHORNE      CLEAR     70  34  26 S5        30.09R
$$

NVZ002-CAZ072-073-211100-
NORTHERN AND CENTRAL SIERRA

CITY           SKY/WX    TMP DP  RH WIND       PRES   REMARKS
S. LAKE TAHOE  PTCLDY    42  29  59 S5        30.26F
TRUCKEE        CLEAR     37  34  87 CALM      30.26S
SQUAW VLY 8000   N/A     52  12  20 CALM        N/A
SUSANVILLE     CLEAR     54  39  58 CALM      30.13
MAMMOTH LAKES  FAIR      55  28  35 CALM      30.29S
BRIDGEPORT     FAIR      47  29  49 CALM      30.26F
$$

NVZ030-031-036-211100-
NORTHERN NEVADA

CITY           SKY/WX    TMP DP  RH WIND       PRES   REMARKS
ELKO           CLEAR     59  23  25 NE5       30.12S
WINNEMUCCA     NOT AVBL
WENDOVER       PTCLDY    77  38  24 VRB3      30.02R
$$

NVZ035-037-211100-
CENTRAL NEVADA

CITY           SKY/WX    TMP DP  RH WIND       PRES   REMARKS
ELY            PTCLDY    61  44  53 S12       30.19S
EUREKA           N/A     50  26  39 S6        30.18S
$$

NVZ013-014-211100-
SOUTH CENTRAL NEVADA

CITY           SKY/WX    TMP DP  RH WIND       PRES   REMARKS
TONOPAH        CLEAR     65  21  18 NW3       30.14S
$$

NVZ017-020-022-211100-
SOUTHERN NEVADA

CITY           SKY/WX    TMP DP  RH WIND       PRES   REMARKS
LAS VEGAS      MOCLDY    87  42  20 S8        29.87S
N. LAS VEGAS   CLEAR     83  51  33 CALM      29.87S
NELLIS AFB     CLEAR     89  46  21 S13       29.85S
HENDERSON      PTCLDY   N/A N/A N/A S13       29.91F
MERCURY        PTCLDY    75  24  15 NE7       29.96S
$$




USA.gov is the U.S. government's official web portal to all federal, state and local government web resources and services.